Lemoore (Abandoned) Willett A, CO

4:42 PM MST on November 18, 2019 (GMT -0700)
Lemoore (Abandoned) Willett A

Weather History for KLMO - October, 2019

Change the Weather History Date:

Tuesday, October 22, 2019

  Actual Average (KBJC) Record (KBJC)
Temperature  
Mean Temperature 47 °F -  
Max Temperature 66 °F 59 °F 84 °F (2003)
Min Temperature 28 °F 37 °F 25 °F (1984)
Degree Days  
Heating Degree Days 18    
Moisture  
Dew Point 25 °F    
Average Humidity 46    
Maximum Humidity 78    
Minimum Humidity 19    
Precipitation  
Precipitation 0.00 in - - ()
Sea Level Pressure  
Sea Level Pressure 30.08 in    
Wind  
Wind Speed 6 mph (West)    
Max Wind Speed 36 mph    
Max Gust Speed 53 mph    
Visibility 10 miles    
Events      
Averages and records for this station are not official NWS values.
T = Trace of Precipitation, MM = Missing Value Source: NWS Daily Summary

Daily Weather History Graph

Daily Weather History Graph

Search for Another Location

Airport or City:

Astronomy

Oct. 22, 2019 Rise Set
Actual Time 7:18 AM MDT 6:10 PM MDT
Civil Twilight 6:50 AM MDT 6:38 PM MDT
Nautical Twilight 6:19 AM MDT 7:10 PM MDT
Astronomical Twilight 5:47 AM MDT 7:41 PM MDT
Moon 12:30 AM MDT (10/22) 3:22 PM MDT (10/22)
Length of Visible Light 11h 47m
Length of Day
10h 52m
Last Quarter, 36% of the Moon is Illuminated
Oct 22
Last Quarter
Oct 27
New
Nov 4
First Quarter
Nov 12
Full
Nov 19
Last Quarter

Hourly Weather History & Observations

Time (MDT) Temp. Windchill Dew Point Humidity Pressure Visibility Wind Dir Wind Speed Gust Speed Precip Events Conditions
12:15 AM 34.3 °F 30.2 °F 26.2 °F 72% 30.19 in 10.0 mi West 4.6 mph - N/A   Scattered Clouds
12:35 AM 39.0 °F 34.8 °F 26.6 °F 61% 30.18 in 10.0 mi NNW 5.8 mph - N/A   Scattered Clouds
12:55 AM 38.5 °F 36.1 °F 26.2 °F 61% 30.18 in 10.0 mi ESE 3.5 mph - N/A   Scattered Clouds
1:15 AM 35.1 °F 30.1 °F 25.0 °F 67% 30.18 in 10.0 mi West 5.8 mph - N/A   Clear
1:35 AM 34.0 °F - 24.4 °F 68% 30.18 in 10.0 mi Calm Calm - N/A   Clear
1:55 AM 31.6 °F - 22.8 °F 70% 30.18 in 10.0 mi Calm Calm - N/A   Clear
2:15 AM 32.0 °F 27.5 °F 23.9 °F 72% 30.18 in 10.0 mi WNW 4.6 mph - N/A   Clear
2:35 AM 33.8 °F 29.6 °F 25.2 °F 71% 30.19 in 10.0 mi NW 4.6 mph - N/A   Clear
2:55 AM 32.9 °F - 24.3 °F 71% 30.18 in 10.0 mi Calm Calm - N/A   Clear
3:15 AM 33.3 °F 26.4 °F 25.2 °F 72% 30.17 in 10.0 mi NE 8.1 mph - N/A   Clear
3:35 AM 32.9 °F 27.5 °F 25.0 °F 73% 30.18 in 10.0 mi WSW 5.8 mph - N/A   Clear
3:55 AM 31.1 °F - 23.5 °F 74% 30.17 in 10.0 mi Calm Calm - N/A   Clear
4:15 AM 30.0 °F - 22.8 °F 75% 30.16 in 10.0 mi Calm Calm - N/A   Clear
4:35 AM 28.0 °F 22.8 °F 22.1 °F 78% 30.16 in 10.0 mi NW 4.6 mph - N/A   Clear
4:55 AM 29.3 °F 24.3 °F 22.8 °F 77% 30.16 in 10.0 mi WNW 4.6 mph - N/A   Clear
5:15 AM 30.6 °F - 23.9 °F 76% 30.16 in 10.0 mi Calm Calm - N/A   Clear
5:35 AM 30.6 °F - 23.9 °F 76% 30.16 in 10.0 mi Calm Calm - N/A   Clear
5:55 AM 32.0 °F 28.7 °F 23.9 °F 72% 30.15 in 10.0 mi West 3.5 mph - N/A   Clear
6:35 AM 32.0 °F 27.5 °F 23.2 °F 70% 30.14 in 10.0 mi SW 4.6 mph - N/A   Clear
6:55 AM 29.3 °F 23.2 °F 21.6 °F 73% 30.14 in 10.0 mi NW 5.8 mph - N/A   Clear
7:15 AM 30.0 °F - 22.3 °F 73% 30.14 in 10.0 mi Calm Calm - N/A   Clear
7:35 AM 31.5 °F - 23.4 °F 72% 30.13 in 7.0 mi Calm Calm - N/A   Clear
7:55 AM 31.3 °F - 23.5 °F 73% 30.14 in 7.0 mi Calm Calm - N/A   Clear
8:15 AM 33.4 °F - 25.5 °F 73% 30.15 in 10.0 mi Calm Calm - N/A   Clear
8:35 AM 36.7 °F - 27.1 °F 68% 30.15 in 10.0 mi Calm Calm - N/A   Clear
8:55 AM 39.6 °F - 28.2 °F 64% 30.15 in 10.0 mi Calm Calm - N/A   Clear
9:15 AM 43.0 °F - 28.2 °F 56% 30.15 in 10.0 mi Calm Calm - N/A   Clear
9:35 AM 46.4 °F 44.3 °F 27.1 °F 47% 30.15 in 10.0 mi East 4.6 mph - N/A   Clear
9:55 AM 48.9 °F - 25.3 °F 40% 30.15 in 10.0 mi East 5.8 mph - N/A   Clear
10:15 AM 50.5 °F - 24.4 °F 36% 30.14 in 10.0 mi ENE 3.5 mph - N/A   Clear
10:35 AM 52.3 °F - 24.6 °F 34% 30.13 in 10.0 mi Calm Calm - N/A   Clear
10:55 AM 55.2 °F - 25.2 °F 31% 30.12 in 10.0 mi North 3.5 mph - N/A   Clear
11:15 AM 57.2 °F - 24.6 °F 29% 30.11 in 10.0 mi East 3.5 mph - N/A   Clear
11:35 AM 58.3 °F - 24.1 °F 27% 30.11 in 10.0 mi East 4.6 mph - N/A   Clear
11:55 AM 59.9 °F - 24.1 °F 25% 30.10 in 10.0 mi Calm Calm - N/A   Clear
12:15 PM 61.7 °F - 24.3 °F 24% 30.08 in 10.0 mi Calm Calm - N/A   Clear
12:35 PM 63.7 °F - 22.3 °F 21% 30.06 in 10.0 mi NW 5.8 mph - N/A   Clear
12:55 PM 64.4 °F - 22.8 °F 21% 30.05 in 10.0 mi West 12.7 mph 23.0 mph N/A   Clear
1:15 PM 64.9 °F - 22.5 °F 20% 30.03 in 10.0 mi West 16.1 mph 23.0 mph N/A   Clear
1:35 PM 65.3 °F - 22.1 °F 19% 30.02 in 10.0 mi West 11.5 mph 21.9 mph N/A   Clear
1:55 PM 65.7 °F - 22.8 °F 20% 30.01 in 10.0 mi WSW 17.3 mph 27.6 mph N/A   Clear
2:15 PM 65.8 °F - 23.4 °F 20% 30.01 in 10.0 mi WSW 11.5 mph 21.9 mph N/A   Clear
2:35 PM 66.9 °F - 23.2 °F 19% 30.00 in 10.0 mi West 9.2 mph - N/A   Clear
2:55 PM 63.5 °F - 25.7 °F 24% 30.00 in 10.0 mi WSW 20.7 mph 27.6 mph N/A   Clear
3:15 PM 64.2 °F - 25.9 °F 23% 30.00 in 10.0 mi WSW 19.6 mph 27.6 mph N/A   Clear
4:15 PM 65.1 °F - 26.6 °F 23% 30.00 in 10.0 mi West 19.6 mph 24.2 mph N/A   Clear
4:35 PM 65.1 °F - 26.6 °F 23% 29.99 in 10.0 mi West 20.7 mph 24.2 mph N/A   Scattered Clouds
4:55 PM 63.9 °F - 27.0 °F 25% 29.99 in 10.0 mi WSW 17.3 mph 28.8 mph N/A   Scattered Clouds
5:15 PM 61.9 °F - 27.1 °F 27% 29.99 in 10.0 mi West 27.6 mph 36.8 mph N/A   Scattered Clouds
5:35 PM 59.9 °F - 26.8 °F 28% 30.00 in 10.0 mi West 26.5 mph 40.3 mph N/A   Scattered Clouds
5:55 PM 58.6 °F - 27.1 °F 30% 29.99 in 10.0 mi West 23.0 mph 38.0 mph N/A   Scattered Clouds
6:15 PM 59.0 °F - 27.1 °F 30% 29.99 in 10.0 mi West 27.6 mph 43.7 mph N/A   Clear
6:35 PM 58.1 °F - 27.0 °F 30% 30.00 in 10.0 mi West 11.5 mph 21.9 mph N/A   Clear
6:55 PM 57.7 °F - 27.1 °F 31% 29.99 in 10.0 mi West 11.5 mph 20.7 mph N/A   Clear
7:15 PM 57.2 °F - 26.6 °F 31% 29.99 in 10.0 mi Calm Calm - N/A   Clear
7:35 PM 58.1 °F - 26.6 °F 30% 29.97 in 10.0 mi SW 13.8 mph - N/A   Clear
7:55 PM 58.6 °F - 26.2 °F 29% 29.97 in 10.0 mi WNW 6.9 mph 18.4 mph N/A   Clear
8:15 PM 55.6 °F - 27.1 °F 34% 29.97 in 10.0 mi WNW 10.4 mph - N/A   Clear
8:35 PM 55.6 °F - 27.3 °F 34% 29.96 in 10.0 mi WNW 6.9 mph - N/A   Clear
10:15 PM 59.0 °F - 25.7 °F 28% 29.90 in 10.0 mi West 35.7 mph 52.9 mph N/A   Clear
10:35 PM 58.5 °F - 25.5 °F 28% 29.91 in 10.0 mi WNW 24.2 mph 34.5 mph N/A   Clear
11:55 PM 57.2 °F - 24.6 °F 29% 29.94 in 10.0 mi West 16.1 mph 21.9 mph N/A   Clear